Lid_Strength_Index
3 2 2 1 1 1 1 1 1 0 0 1 1 1 1 0 -0 -1 -1 -1 -1 -1 -1 -1 -1 -1 -1 -1 -1 -1 -0 -0 -1 -0 0 -0 -1 -0 -1 -1 -1 -1 -1
4 3 2 2 2 1 1 1 1 0 0 0 0 0 0 -0 -0 -1 -1 -1 -1 -1 -1 -1 -0 -1 -0 -0 -0 -0 0 0 -1 1 1 3 2 0 -0 -1 -1 -1 -1
4 4 3 3 2 2 1 1 1 0 0 -0 -0 0 -0 -0 0 0 -0 -1 -1 -1 -1 -1 -1 -1 -0 0 -0 -0 0 1 -0 -0 1 3 4 2 -0 -0 -1 -1 -1
4 3 3 3 2 2 1 1 1 0 0 -0 0 1 1 2 1 0 -0 -0 -1 -1 -1 -1 -1 -1 -1 -0 -0 -0 -0 0 1 0 -0 -0 1 3 4 1 0 -0 -0
4 4 3 3 2 1 1 1 1 1 0 0 0 1 1 1 0 0 0 -0 -1 -1 -1 -1 -1 -1 -0 -1 -0 -0 -0 0 0 1 1 0 0 0 2 4 2 0 -0
4 3 3 2 2 1 1 1 1 1 0 0 0 1 1 1 1 1 1 1 0 -0 -1 -1 -1 -1 -1 -0 -0 -1 -1 -0 -0 0 0 1 2 2 2 3 2 2 1
4 4 3 3 2 2 2 1 1 2 1 1 1 1 1 1 1 1 1 1 1 0 -0 -1 -0 -0 -1 -1 -1 -1 -1 -0 0 -0 0 0 0 -0 1 1 2 2 1
4 4 3 3 3 2 2 2 2 2 1 1 1 1 0 1 1 0 1 1 1 0 -1 -0 -1 -1 -1 -1 -1 -0 -0 -1 -0 -0 -0 0 0 -0 0 1 2 3 2
4 4 3 3 2 2 2 2 2 2 1 1 1 1 1 1 1 0 0 0 -0 -0 -0 -1 -0 -1 -1 -1 -1 0 -0 -0 -0 -0 -0 0 -0 -0 -0 -0 0 2 4
4 4 3 3 2 2 2 1 1 2 1 1 1 1 1 0 0 0 0 0 -0 -0 -0 -0 -0 -0 -0 -0 -0 -0 -0 -0 -0 -0 -0 -0 -0 -0 -0 -0 0 0 2
4 3 3 3 2 2 2 2 2 2 2 1 1 1 1 1 0 1 0 0 -0 -0 0 -0 -0 0 -0 -0 -0 -0 -0 0 0 -0 -0 0 -1 0 0 -0 0 1 1
3 3 3 2 2 2 2 2 2 2 1 1 1 1 1 1 1 1 0 0 0 -0 -0 -0 0 0 -0 -0 0 0 0 0 1 0 0 0 0 0 -0 0 0 0 0
3 3 3 3 3 3 2 2 2 2 1 1 1 1 1 1 1 1 0 0 0 0 0 -0 0 0 0 0 0 0 0 0 0 0 0 0 0 1 0 0 0 0 0
4 3 3 3 3 2 2 2 2 1 1 1 2 2 2 1 1 1 1 0 0 0 0 0 0 0 0 0 0 0 0 0 0 0 -0 0 0 0 1 1 0 0 1
4 4 4 3 3 3 2 2 2 2 1 2 2 2 1 1 1 1 1 1 0 0 0 0 0 0 0 0 0 0 0 1 1 0 0 -0 -0 0 0 1 1 0 1
4 3 3 3 3 3 3 2 2 2 1 2 2 2 1 1 1 1 1 1 1 1 1 1 1 1 1 3 3 1 1 0 1 1 0 -0 1 1 2 2 1 0 1
4 3 3 3 3 3 2 2 2 1 2 2 2 2 1 2 1 1 1 1 1 1 1 1 1 1 1 4 4 2 0 1 1 1 0 1 1 2 1 3 3 2 1
3 3 3 2 2 2 2 2 2 2 2 2 2 2 2 2 1 1 2 1 1 1 1 1 1 1 1 5 5 3 0 1 0 0 0 1 1 1 2 1 0 0 -0
3 2 2 2 2 2 2 2 2 2 2 2 2 2 2 2 2 2 2 1 1 1 1 1 1 1 1 6 6 4 1 1 1 1 0 0 1 3 5 0 1 1 0
2 2 2 2 2 2 1 2 3 2 3 2 2 2 1 2 2 2 2 1 1 1 1 1 1 2 1 7 7 4 1 2 2 1 0 5 2 6 6 1 1 2 1
2 2 2 2 2 1 2 3 2 3 2 1 1 1 1 2 1 1 1 1 1 1 1 2 1 1 1 1 9 8 1 2 2 2 2 1 7 9 8 5 1 2 0
2 2 2 2 2 2 2 3 3 2 1 1 2 2 1 1 1 2 2 1 2 2 2 2 2 1 1 5 10 9 6 3 2 2 1 2 9 10 9 6 3 5 3
3 2 2 3 2 2 2 3 2 1 2 2 2 2 1 2 1 2 2 2 2 3 3 3 3 3 2 1 10 11 10 8 2 1 3 7 11 10 9 6 6 6 1
4 3 3 4 4 3 2 2 2 1 2 2 2 2 2 2 2 2 2 2 2 3 3 3 3 3 2 3 7 8 8 8 5 5 5 7 6 6 5 6 5 1 0
4 4 4 4 4 3 3 2 2 1 2 2 2 2 2 2 3 5 4 2 1 2 2 2 3 5 7 9 10 8 6 5 7 5 3 4 4 4 4 4 3 2 2
4 4 4 4 3 3 3 2 2 1 2 3 3 3 3 3 5 6 8 14 14 14 14 13 8 8 12 15 14 14 13 11 8 2 3 3 3 3 3 4 4 3 3